Stations météo

réclame
Mon MeteoGroup
Girona/Costa Brava, Espagne (8184): Température de l'air & dewpoint: 19.06.2018 21:00:00 - 25.06.2018 21:00:00 (CEST)Girona/Costa Brava, Espagne (8184): Vitesse du vent: 19.06.2018 21:00:00 - 25.06.2018 21:00:00 (CEST)Girona/Costa Brava, Espagne (8184): Direction du vent: 19.06.2018 21:00:00 - 25.06.2018 21:00:00 (CEST)Girona/Costa Brava, Espagne (8184): reduced air pressure: 19.06.2018 21:00:00 - 25.06.2018 21:00:00 (CEST)Girona/Costa Brava, Espagne (8184): visibility: 19.06.2018 21:00:00 - 25.06.2018 21:00:00 (CEST)
Date & Time tt [°C] td [°C] ff [km/h] ff [knt] dd ppp [hPa] vv [km]
25.06.2018 21:00:00 23,1 12,4 11 6 SSW 1016,0 -
25.06.2018 20:00:00 24,0 12,6 13 7 SSW 1015,5 28
25.06.2018 19:00:00 25,6 12,5 16 9 S 1015,1 -
25.06.2018 18:00:00 27,0 13,0 16 9 S 1014,7 -
25.06.2018 17:00:00 28,1 12,7 21 11 S 1014,6 30
25.06.2018 16:00:00 28,7 12,0 24 13 S 1014,7 -
25.06.2018 15:00:00 29,0 11,5 26 14 SSW 1014,7 -
25.06.2018 14:00:00 30,1 11,6 22 12 S 1014,6 40
25.06.2018 13:00:00 29,5 11,3 9 5 SW 1014,8 -
25.06.2018 12:00:00 28,5 11,2 8 4 SE 1015,2 -
25.06.2018 11:00:00 26,7 11,5 5 3 WSW 1015,6 50
25.06.2018 10:00:00 25,3 10,8 4 2 WNW 1016,1 -
25.06.2018 09:00:00 23,6 11,2 11 6 NNE 1016,2 -
25.06.2018 08:00:00 21,4 13,4 11 6 NNE 1016,0 40
25.06.2018 07:00:00 17,4 14,3 9 5 NNE 1015,9 -
25.06.2018 06:00:00 16,8 13,9 8 4 NNE 1015,4 -
25.06.2018 05:00:00 17,8 14,5 0 0 N 1015,2 -
25.06.2018 04:00:00 17,3 13,6 0 0 N 1015,6 -
25.06.2018 03:00:00 17,6 13,9 0 0 N 1015,7 -
25.06.2018 02:00:00 17,9 14,4 4 2 NNE 1016,0 30
25.06.2018 01:00:00 18,1 13,8 2 1 E 1016,3 -
25.06.2018 00:00:00 19,1 13,9 4 2 WNW 1016,3 -
24.06.2018 23:00:00 19,8 13,3 8 4 W 1016,1 40
24.06.2018 22:00:00 21,5 12,9 5 3 SSW 1015,6 -
24.06.2018 21:00:00 23,6 12,9 9 5 S 1015,1 -
24.06.2018 20:00:00 25,1 12,7 13 7 SSW 1014,7 -
24.06.2018 19:00:00 24,9 12,2 15 8 SW 1014,7 -
24.06.2018 18:00:00 26,8 11,3 18 10 SSW 1014,9 -
24.06.2018 17:00:00 27,8 11,0 21 11 SSW 1015,0 -
24.06.2018 16:00:00 28,7 11,5 21 11 S 1015,1 -
24.06.2018 15:00:00 29,6 10,7 22 12 SSW 1015,2 -
24.06.2018 14:00:00 30,3 10,9 9 5 S 1015,5 -
24.06.2018 13:00:00 28,9 10,4 13 7 S 1016,1 -
24.06.2018 12:00:00 27,8 12,3 11 6 SSW 1016,6 -
24.06.2018 11:00:00 26,3 13,6 9 5 S 1016,9 -
24.06.2018 10:00:00 24,4 13,1 5 3 S 1017,2 -
24.06.2018 09:00:00 20,6 14,1 4 2 SW 1017,3 -
24.06.2018 08:00:00 18,4 13,5 0 0 N 1017,4 55
24.06.2018 07:00:00 16,2 12,7 0 0 N 1017,2 -
24.06.2018 06:00:00 15,6 12,0 2 1 ENE 1017,0 -
24.06.2018 05:00:00 16,2 12,2 0 0 N 1017,0 -
24.06.2018 04:00:00 17,2 12,6 0 0 N 1017,4 -
24.06.2018 03:00:00 16,6 13,1 0 0 N 1017,6 -
24.06.2018 02:00:00 16,6 12,5 4 2 ENE 1017,7 -
24.06.2018 01:00:00 18,7 12,4 0 0 N 1017,9 -
24.06.2018 00:00:00 19,7 12,8 5 3 NNE 1017,9 -
23.06.2018 23:00:00 20,3 13,0 5 3 ENE 1018,0 25
23.06.2018 22:00:00 22,3 12,3 4 2 W 1017,5 -
23.06.2018 21:00:00 23,0 11,9 9 5 WSW 1017,2 -
23.06.2018 20:00:00 25,6 11,4 9 5 SW 1016,9 40
23.06.2018 19:00:00 27,2 10,5 15 8 SW 1016,4 -
23.06.2018 18:00:00 28,7 10,9 18 10 SSW 1016,3 -
23.06.2018 17:00:00 29,5 8,9 11 6 E 1016,5 -
23.06.2018 16:00:00 29,9 10,8 13 7 ESE 1016,6 -
23.06.2018 15:00:00 30,2 10,8 13 7 E 1016,8 -
23.06.2018 14:00:00 29,9 11,1 13 7 E 1016,9 35
23.06.2018 13:00:00 29,1 12,4 11 6 NNE 1017,3 -
23.06.2018 12:00:00 28,7 13,1 8 4 ESE 1017,4 -
23.06.2018 11:00:00 26,4 12,0 5 3 NE 1017,8 40
23.06.2018 10:00:00 24,2 11,7 8 4 NE 1018,2 -
23.06.2018 09:00:00 23,5 12,5 4 2 ENE 1018,0 -
23.06.2018 08:00:00 22,3 12,5 8 4 N 1017,8 35
23.06.2018 07:00:00 21,7 12,6 4 2 N 1017,4 -
23.06.2018 06:00:00 21,6 13,3 11 6 NNE 1017,2 -
23.06.2018 05:00:00 22,1 16,6 8 4 ENE 1016,8 30
23.06.2018 04:00:00 22,2 18,0 5 3 NE 1017,0 -
23.06.2018 03:00:00 22,8 18,6 0 0 N 1017,1 -
23.06.2018 02:00:00 22,7 18,5 5 3 WSW 1017,2 25
23.06.2018 01:00:00 22,7 19,1 5 3 SW 1017,3 -
23.06.2018 00:00:00 22,8 19,2 5 3 SW 1017,2 -
22.06.2018 23:00:00 23,4 19,3 5 3 SW 1017,0 25
22.06.2018 22:00:00 24,3 19,4 5 3 SE 1016,3 -
22.06.2018 21:00:00 25,1 19,5 13 7 S 1015,7 -
22.06.2018 20:00:00 25,7 19,6 15 8 S 1015,5 30
22.06.2018 19:00:00 26,3 19,6 18 10 S 1015,2 -
22.06.2018 18:00:00 27,7 19,4 21 11 S 1015,1 -
22.06.2018 17:00:00 28,5 18,7 24 13 S 1015,0 30
22.06.2018 16:00:00 30,5 17,8 22 12 S 1015,0 -
22.06.2018 15:00:00 30,3 17,6 28 15 SSW 1015,0 -
22.06.2018 14:00:00 31,2 15,5 26 14 SSW 1015,2 -
22.06.2018 13:00:00 31,6 16,5 22 12 S 1015,3 -
22.06.2018 12:00:00 31,8 13,4 15 8 S 1015,3 -
22.06.2018 11:00:00 29,6 17,5 11 6 S 1015,5 25
22.06.2018 10:00:00 26,8 16,9 8 4 WSW 1015,9 -
22.06.2018 09:00:00 23,2 17,2 8 4 SE 1016,0 -
22.06.2018 08:00:00 22,1 17,1 2 1 S 1015,9 -
22.06.2018 07:00:00 18,8 16,2 0 0 N 1016,1 -
22.06.2018 06:00:00 17,7 15,5 5 3 NNE 1015,9 -
22.06.2018 05:00:00 18,5 15,9 4 2 WSW 1015,9 -
22.06.2018 04:00:00 19,3 15,2 0 0 N 1016,0 -
22.06.2018 03:00:00 19,3 14,8 0 0 N 1016,1 -
22.06.2018 02:00:00 20,1 15,7 2 1 E 1016,1 -
22.06.2018 01:00:00 21,1 15,1 0 0 N 1016,4 -
22.06.2018 00:00:00 22,0 15,4 0 0 N 1016,2 -
21.06.2018 23:00:00 23,6 15,1 0 0 N 1016,1 -
21.06.2018 22:00:00 25,6 14,7 4 2 S 1015,3 -
21.06.2018 21:00:00 27,4 13,6 9 5 SSW 1015,0 -
21.06.2018 20:00:00 30,3 12,2 13 7 SSW 1014,6 -
21.06.2018 19:00:00 31,6 12,0 15 8 SSW 1014,5 -
21.06.2018 18:00:00 32,4 12,3 15 8 SSW 1014,7 -
21.06.2018 17:00:00 33,0 12,2 16 9 S 1015,1 -
21.06.2018 16:00:00 33,1 13,0 15 8 S 1015,3 -
21.06.2018 15:00:00 33,1 12,9 18 10 S 1015,6 -
21.06.2018 14:00:00 33,2 14,2 24 13 S 1015,8 -
21.06.2018 13:00:00 33,2 13,4 8 4 NE 1016,0 -
21.06.2018 12:00:00 32,0 12,3 8 4 S 1016,5 -
21.06.2018 11:00:00 29,9 13,9 4 2 NNE 1016,8 -
21.06.2018 10:00:00 27,1 15,9 4 2 ENE 1017,2 -
21.06.2018 09:00:00 23,5 15,0 2 1 SE 1017,3 -
21.06.2018 08:00:00 19,8 14,4 5 3 NE 1017,4 55
21.06.2018 07:00:00 16,2 13,7 0 0 N 1017,5 -
21.06.2018 06:00:00 14,8 12,7 0 0 N 1017,4 -
21.06.2018 05:00:00 15,8 12,9 4 2 S 1017,5 -
21.06.2018 04:00:00 16,2 12,9 0 0 N 1017,8 -
21.06.2018 03:00:00 16,6 13,1 8 4 N 1017,9 -
21.06.2018 02:00:00 16,9 13,2 4 2 N 1018,2 -
21.06.2018 01:00:00 17,6 13,4 2 1 NNW 1018,4 -
21.06.2018 00:00:00 19,1 13,5 4 2 NW 1018,4 -
20.06.2018 23:00:00 21,9 13,5 4 2 WSW 1018,2 60
20.06.2018 22:00:00 23,7 12,3 8 4 SSW 1017,6 -
20.06.2018 21:00:00 26,0 12,9 8 4 SW 1017,2 -
20.06.2018 20:00:00 28,9 11,5 16 9 SSW 1016,9 50
20.06.2018 19:00:00 30,5 11,6 18 10 SSW 1016,4 -
20.06.2018 18:00:00 31,1 11,5 18 10 SSW 1016,7 -
20.06.2018 17:00:00 31,9 11,1 21 11 SSW 1016,9 -
20.06.2018 16:00:00 32,3 12,5 22 12 SSW 1017,0 -
20.06.2018 15:00:00 33,1 12,9 18 10 S 1017,1 -
20.06.2018 14:00:00 32,5 12,8 9 5 SSE 1017,5 50
20.06.2018 13:00:00 31,9 12,5 11 6 SE 1018,0 -
20.06.2018 12:00:00 31,3 13,9 5 3 ENE 1018,2 -
20.06.2018 11:00:00 29,8 14,2 4 2 E 1018,3 60
20.06.2018 10:00:00 28,1 15,0 5 3 NNE 1018,5 -
20.06.2018 09:00:00 24,5 16,5 0 0 N 1018,8 -
20.06.2018 08:00:00 20,6 15,5 0 0 N 1018,9 40
20.06.2018 07:00:00 16,4 14,6 0 0 N 1018,9 -
20.06.2018 06:00:00 15,5 14,2 4 2 NE 1018,6 -
20.06.2018 05:00:00 15,9 14,1 0 0 N 1018,6 25
20.06.2018 04:00:00 16,0 13,7 0 0 N 1018,7 -
20.06.2018 03:00:00 16,2 13,7 4 2 ENE 1018,9 -
20.06.2018 02:00:00 16,7 13,9 4 2 NE 1019,0 -
20.06.2018 01:00:00 18,4 14,3 0 0 N 1019,3 -
20.06.2018 00:00:00 18,8 14,7 4 2 NE 1019,2 -
19.06.2018 23:00:00 20,4 14,7 4 2 W 1019,2 30
19.06.2018 22:00:00 21,9 14,3 8 4 SW 1018,7 -
19.06.2018 21:00:00 23,9 15,1 9 5 SSW 1018,5 -

tt = Température de l'air
td = dewpoint
ff = Vitesse du vent
dd = Direction du vent
ppp = reduced air pressure
vv = visibility

stations d'obs. à proximité